Location: Ermatingen
(47.6706°N, 9.0857°E)
Time: 15:25:25
(UTC+00:00)

H-2A R/B - Pass Details

Date: 18 September 2020
Orbit: 734 x 836 km, 98.2° (Epoch: 23 October)

Event Time Altitude Azimuth Distance (km) Brightness Sun altitude
Rises 19:13:38 0° 191° (S) 3,158 5.1 -17.9°
Reaches altitude 10° 19:16:06 10° 201° (SSW) 2,248 4.4 -18.3°
Maximum altitude 19:20:32 33° 265° (W) 1,254 3.6 -19.0°
Drops below altitude 10° 19:25:05 10° 329° (NNW) 2,308 5.3 -19.7°
Sets 19:27:39 0° 339° (NNW) 3,255 6.0 -20.1°
